INMARSAT 4-F2

Last updated on Tue Oct 15 2024 00:02:38 GMT+0000 (Coordinated Universal Time)

1 28899U 05044A 24288.55535432 -.00000259 00000+0 00000+0 0 9990 2 28899 4.3230 42.8361 0003011 181.8943 142.3131 1.00271659 69396
UTC large
Height (km)
Speed (km/s)
/
Latitude / Longitude
Inclination (degrees)
Orbital Period (minutes)
Azimuth
Elevation
Range (km)
Doppler Factor

Next 0 passes for location: London (51.5072 / 0.1276)

Sorry there are no passes over London.